Weather in Shapkino

Russia / Tambov Oblast     51°42′33″N   42°23′16″E
temp.,
°C
wind,
m/s
gust,
m/s
humid.,
%
clouds,
%
prec.,
mm/h
press.,
hPa
HPBL,
m
8 march, mon
mon800:00−2wsw101793100 0.5 10031017
03:00−2wsw8169098 0.6 1004806
06:00−3wsw41091100 0.4 1004251
09:00−3sw4986100 0.4 1004445
12:00−1w4799100 2.0 1004521
15:00−1w61184100 4.1 10041114
18:00−5w488481 0.0 1006159
21:00−9wnw339046 0.0 100922
9 march, tue
tue900:00−11w22910 0.0 101021
03:00−12wnw12920 0.0 101021
06:00−13nw129318 0.0 101120
09:00−10nnw129253 0.0 1012108
12:00−7nnw238775 0.0 1012365
15:00−6nw458987 0.1 1013577
18:00−10nw5109098 0.1 1014285
21:00−14nw499461 0.1 1017191
10 march, wed
wed1000:00−16nw49950 0.0 1019144
03:00−18nw47970 0.0 1021107
06:00−19nw48960 0.0 1022139
09:00−17nw59920 0.0 1024351
12:00−15nw578847 0.0 1025526
15:00−14nw468772 0.0 1025594
18:00−18wnw469380 0.0 102593
21:00−21nnw469643 0.0 102789
11 march, thu
thu1100:00−23n34979 0.0 102836
03:00−24n33974 0.0 103034
06:00−25n33950 0.0 103130
09:00−22nne24930 0.0 1033150
12:00−18nne23830 0.0 1033328
15:00−16n22790 0.0 1033395
18:00−20nnw12920 0.0 103320
21:00−22nw11920 0.0 103420
12 march, fri
fri1200:00−23nw00920 0.0 103420
03:00−23sse11910 0.0 103420
06:00−23sse12890 0.0 103420
09:00−19sse34850 0.0 1034136
12:00−14sse46826 0.0 1032310
15:00−12sse578253 0.0 1031407
18:00−14se51085100 0.0 1028248
21:00−14sse6147999 0.0 1027282